Find Starlink 31950

NORAD ID: 59863 Int'l Des: 2024-098 Owner: SPXS Country: US Constellation: starlink operational
LEOCIRCULAR

現在のビュー

3D地球を読み込み中...

About Starlink 31950

Starlink 31950 (NORAD 59863) is a starlink constellation satellite (v2 mini) launched May 24, 2024 by SPXS of US. It operates in LEO, CIRCULAR orbit with a mass of 730.00 kg.

次回通過

Passes for default location (London). Set your location on the main map for personalized predictions.

高度履歴

Loading altitude history...

軌道要素

1 59863U 24098F 26265.03557495 -.00000376 00000-0 -41551-5 0 9992
2 59863 43.0019 249.2326 0001458 274.5104 85.5581 15.27578618131871
Epoch: Sep 22, 2026 • Age: 31 hours

現在のステータス

高度 484.0 km
遠地点 / 近地点 N/A
速度 7.62 km/s
衛星直下点 -6.78°S, 45.32°W
打ち上げ日 May 24, 2024
運用期間 2.3 years
タイプ internet

技術仕様

分類 Payload
質量 730.00 kg
乾燥質量 700.00 kg
長さ 0.30 m
スパン 29.00 m
形状 ? Box + pan
製造者 SPXS
バスタイプ Starlink V2M
フェーズステータス In Orbit
所有者/国 SPXS/US

Most Searched